Flag for U.S.A. Weather past 2 weeks in Albany, New York, U.S.A.

Now
68 °F

Overcast.


Feels Like: 68 °F
Forecast: 61 / 74 °F
Wind: 7 mph from South

Location: Albany County Airport

Current Time: Jul 30, 2014 at 11:31:11 PM

Latest Report: Jul 30, 2014 at 10:51 PM


Visibility: 10 mi

Pressure: 30.01 "Hg

Humidity: 65%

Dew point: 56 °F

Location of AlbanyLocation

Historic Weather in Albany — Graph

°F

Albany temperature yesterday

Maximum temperature yesterday: 74 °F (at 3:51 PM)
Minimum temperature yesterday: 59 °F (at 5:51 AM)
Average temperature yesterday: 66 °F

Past Weeks' High & Low Weather Summary

 TemperatureHumidityPressure
High90 °F (Jul 23, 3:51 PM)94% (Jul 28, 6:54 AM)30.28 "Hg (Jul 28, 6:54 AM)
Low54 °F (Jul 18, 5:51 AM)35% (Jul 18, 3:51 PM)29.46 "Hg (Jul 28, 1:51 PM)
Average71 °F68%29.95 "Hg
* Reported Jul 15 9:51 PM — Jul 30 9:51 PM, Albany, Weather by CustomWeather, © 2014

Note: Actual official high and low records may vary slightly from our data, if they occured in-between our weather recording intervals... More about our weather records

Advertising

Albany weather history for previous 24 hours

 ConditionsComfort  
Time TempWeatherWind HumidityBarometerVisibility
9:51 PM
Jul 30
66 °FPassing clouds.No wind68%30.01 "Hg10 mi
8:51 PM70 °FPassing clouds.3 mph57%30.00 "Hg10 mi
7:51 PM72 °FPassing clouds.7 mph52%29.99 "Hg10 mi
6:51 PM75 °FPassing clouds.8 mph45%29.98 "Hg10 mi
5:51 PM74 °FPartly sunny.8 mph50%29.98 "Hg10 mi
4:51 PM76 °FPartly sunny.8 mph45%29.98 "Hg10 mi
3:51 PM76 °FBroken clouds.5 mph45%29.97 "Hg10 mi
2:51 PM76 °FBroken clouds.7 mph43%29.98 "Hg10 mi
1:51 PM74 °FScattered clouds.No wind46%29.99 "Hg10 mi
12:51 PM73 °FPassing clouds.3 mph48%30.01 "Hg10 mi
11:51 AM72 °FPassing clouds.5 mph52%30.03 "Hg10 mi
10:51 AM70 °FPassing clouds.3 mph57%30.03 "Hg10 mi
9:51 AM67 °FPartly sunny.No wind66%30.04 "Hg10 mi
8:51 AM64 °FOvercast.No wind73%30.04 "Hg10 mi
7:51 AM62 °FOvercast.No wind75%30.03 "Hg10 mi
6:51 AM61 °FPartly sunny.No wind81%30.01 "Hg10 mi
5:51 AM60 °FOvercast.No wind80%30.00 "Hg10 mi
4:51 AM61 °FOvercast.No wind75%29.99 "Hg10 mi
3:51 AM61 °FOvercast.No wind75%29.98 "Hg10 mi
2:51 AM62 °FOvercast.No wind73%29.98 "Hg10 mi
1:51 AM62 °FPassing clouds.5 mph70%29.98 "Hg10 mi
12:51 AM63 °FPassing clouds.No wind68%29.97 "Hg10 mi
11:51 PM
Jul 29
63 °FPassing clouds.No wind68%29.96 "Hg10 mi
Weather by CustomWeather, © 2014

See weather overviewHow to use our weather pages